Powrót do katalogu

STARLINK-37224

AktywnyŁącznośćSSO
NORAD 68671·PAYLOAD·🇺🇸 United States

Wystrzelony Apr 11, 2026 z Vandenberg Space Force Base

Loading…

Następne Przeloty (najbliższe 24 godziny)

TLE

ŚwieżeSource: CelesTrak SupGP

Epoka: Sep 14, 2026, 21:13 UTC

1 68671C 26077K   26257.88451389 -.00005266  00000+0 -16357-3 0  2570
2 68671  97.2846 127.8382 0001936  93.3556 176.0637 15.33422413    16

Śledź STARLINK-37224 w czasie rzeczywistym z AllMySat

Download on the App Store